Flag for Germany Weather past 2 weeks in Schwedt/Oder, Brandenburg, Germany

Now
63 °F

Clear.


Feels Like: 63 °F
Forecast: 63 / 87 °F
Wind: 8 mph from East

Location: Szczecin Airport

Current Time: Jul 2, 2015 at 3:04:01 AM

Latest Report: Jul 2, 2015 at 2:30 AM


Visibility: 10 mi

Pressure: 30.30 "Hg

Humidity: 64%

Dew point: 50 °F

Location of Schwedt/OderLocation

Historic Weather in Schwedt/Oder — Graph

°F

Schwedt/Oder temperature yesterday

Maximum temperature yesterday: 77 °F (at 3:00 PM)
Minimum temperature yesterday: 48 °F (at 4:30 AM)
Average temperature yesterday: 65 °F

Past Weeks' High & Low Weather Summary

 TemperatureHumidityPressure
High77 °F (Jul 1, 3:00 PM)100% (Jun 18, 5:30 AM)30.30 "Hg (Jun 18, 5:30 AM)
Low39 °F (Jun 17, 5:00 AM)35% (Jun 17, 4:00 PM)29.59 "Hg (Jun 23, 2:00 AM)
Average58 °F81%29.99 "Hg
* Reported Jun 17 2:00 AM — Jul 2 2:00 AM, Schwedt/Oder, Weather by CustomWeather, © 2015

Note: Actual official high and low records may vary slightly from our data, if they occured in-between our weather recording intervals... More about our weather records

Advertising

Schwedt/Oder weather history for previous 24 hours

 ConditionsComfort  
Time TempWeatherWind HumidityBarometerVisibility
2:00 AM
Thu, Jul 2
64 °FClear.9 mph64%30.30 "Hg10 mi
1:30 AM64 °FClear.9 mph68%30.30 "Hg10 mi
1:00 AM64 °FClear.7 mph73%30.30 "Hg10 mi
12:30 AM64 °FClear.7 mph73%30.30 "Hg10 mi
12:00 AM64 °FClear.7 mph73%30.27 "Hg10 mi
11:00 PM
Wed, Jul 1
64 °FClear.5 mph73%30.27 "Hg10 mi
10:30 PM64 °FSunny.5 mph73%30.27 "Hg10 mi
10:00 PM66 °FSunny.6 mph73%30.27 "Hg10 mi
9:30 PM68 °FPassing clouds.6 mph69%30.27 "HgN/A
9:00 PM70 °FPassing clouds.6 mph64%30.24 "HgN/A
8:30 PM72 °FPassing clouds.6 mph61%30.24 "HgN/A
8:00 PM72 °FPassing clouds.7 mph57%30.24 "HgN/A
7:30 PM73 °FPassing clouds.8 mph53%30.24 "HgN/A
7:00 PM73 °FPassing clouds.9 mph53%30.24 "HgN/A
6:30 PM75 °FPassing clouds.8 mph54%30.24 "HgN/A
6:00 PM75 °FPassing clouds.7 mph54%30.24 "HgN/A
5:30 PM75 °FPassing clouds.7 mph54%30.24 "HgN/A
5:00 PM77 °FPassing clouds.7 mph51%30.24 "HgN/A
4:30 PM75 °FPassing clouds.7 mph50%30.24 "HgN/A
4:00 PM75 °FPassing clouds.8 mph47%30.24 "HgN/A
3:30 PM77 °FPassing clouds.9 mph44%30.24 "HgN/A
3:00 PM77 °FPassing clouds.8 mph44%30.24 "HgN/A
2:30 PM75 °FPassing clouds.7 mph47%30.27 "HgN/A
2:00 PM73 °FPassing clouds.6 mph50%30.27 "HgN/A
1:30 PM75 °FSunny.9 mph47%30.27 "Hg10 mi
1:00 PM73 °FPassing clouds.7 mph50%30.27 "HgN/A
12:30 PM73 °FSunny.3 mph50%30.27 "Hg10 mi
12:00 PM72 °FSunny.5 mph47%30.27 "Hg10 mi
11:30 AM72 °FSunny.6 mph47%30.27 "Hg10 mi
11:00 AM70 °FSunny.5 mph50%30.27 "Hg10 mi
10:30 AM68 °FSunny.3 mph53%30.27 "Hg10 mi
10:00 AM68 °FSunny.No wind64%30.27 "Hg10 mi
9:30 AM68 °FSunny.2 mph64%30.27 "Hg10 mi
9:00 AM66 °FSunny.No wind68%30.27 "Hg10 mi
8:30 AM64 °FSunny.No wind73%30.27 "Hg10 mi
8:00 AM63 °FSunny.1 mph83%30.27 "Hg10 mi
7:30 AM63 °FSunny.No wind77%30.27 "Hg10 mi
7:00 AM61 °FSunny.No wind77%30.24 "Hg10 mi
6:30 AM55 °FSunny.No wind88%30.24 "Hg10 mi
6:00 AM52 °FSunny.No wind94%30.24 "Hg10 mi
5:30 AM50 °FFog.No wind94%30.24 "Hg5 mi
5:00 AM50 °FFog.No wind94%30.24 "Hg5 mi
4:30 AM48 °FFog.No wind94%30.24 "Hg5 mi
4:00 AM50 °FClear.No wind94%30.24 "Hg10 mi
3:30 AM50 °FClear.No wind94%30.24 "Hg10 mi
3:00 AM50 °FClear.No wind94%30.24 "Hg10 mi
Weather by CustomWeather, © 2015

See weather overviewHow to use our weather pages